• en France
  • Liste des pays
  • À 7 jours
  • Température de l'eau
  • Carte satellitaire
  • Carte météo
  • Widgets météo
  • user-avatar
    Se connecter

    Météo par heure à Phenian

    Ce jour, 20 Août, Lundi

    Heure Température Précipitation Vent Pression Humidité
    00:00 +25°C° 0 mm 1 m/s 755 mmHg 90%
    01:00 +25°C° 0 mm 1 m/s 755 mmHg 91%
    02:00 +24°C° 0 mm 1 m/s 755 mmHg 91%
    03:00 +24°C° 0 mm 2 m/s 755 mmHg 91%
    04:00 +24°C° 0 mm 2 m/s 755 mmHg 91%
    05:00 +24°C° 0 mm 2 m/s 754 mmHg 91%
    06:00 +25°C° 0 mm 2 m/s 754 mmHg 87%
    07:00 +26°C° 0 mm 3 m/s 754 mmHg 84%
    08:00 +27°C° 0 mm 3 m/s 754 mmHg 81%
    09:00 +27°C° 0,1 mm 3 m/s 753 mmHg 80%
    10:00 +27°C° 0,1 mm 4 m/s 753 mmHg 79%
    11:00 +28°C° 0,1 mm 4 m/s 752 mmHg 78%
    12:00 +29°C° 0,1 mm 5 m/s 751 mmHg 75%
    13:00 +30°C° 0,1 mm 6 m/s 750 mmHg 72%
    14:00 +32°C° 0,1 mm 8 m/s 750 mmHg 70%
    15:00 +30°C° 1 mm 7 m/s 749 mmHg 74%
    16:00 +29°C° 1 mm 7 m/s 749 mmHg 78%
    17:00 +28°C° 1 mm 6 m/s 748 mmHg 82%
    18:00 +27°C° 2,3 mm 6 m/s 748 mmHg 85%
    19:00 +27°C° 2,3 mm 6 m/s 748 mmHg 89%
    20:00 +26°C° 2,3 mm 6 m/s 748 mmHg 92%
    21:00 +26°C° 3,8 mm 6 m/s 748 mmHg 93%
    22:00 +26°C° 3,8 mm 6 m/s 747 mmHg 93%
    23:00 +26°C° 3,8 mm 6 m/s 747 mmHg 94%

    Demain, 21 Août, Mardi

    Heure Température Précipitation Vent Pression Humidité
    00:00 +26°C° 1,8 mm 6 m/s 747 mmHg 94%
    01:00 +26°C° 1,8 mm 6 m/s 747 mmHg 94%
    02:00 +26°C° 1,8 mm 6 m/s 747 mmHg 94%
    03:00 +26°C° 0,5 mm 5 m/s 747 mmHg 94%
    04:00 +26°C° 0,5 mm 5 m/s 747 mmHg 95%
    05:00 +26°C° 0,5 mm 5 m/s 747 mmHg 95%
    06:00 +26°C° 0,1 mm 5 m/s 748 mmHg 95%
    07:00 +26°C° 0,1 mm 4 m/s 748 mmHg 95%
    08:00 +26°C° 0,1 mm 3 m/s 749 mmHg 95%
    09:00 +27°C° 0,1 mm 3 m/s 749 mmHg 92%
    10:00 +27°C° 0,1 mm 3 m/s 749 mmHg 89%
    11:00 +28°C° 0,1 mm 3 m/s 750 mmHg 85%
    12:00 +29°C° 0 mm 3 m/s 750 mmHg 82%
    13:00 +29°C° 0 mm 3 m/s 750 mmHg 79%
    14:00 +30°C° 0 mm 3 m/s 750 mmHg 75%
    15:00 +29°C° 0 mm 2 m/s 750 mmHg 77%
    16:00 +29°C° 0 mm 2 m/s 750 mmHg 79%
    17:00 +28°C° 0 mm 2 m/s 750 mmHg 81%
    18:00 +27°C° 0 mm 2 m/s 750 mmHg 85%
    19:00 +25°C° 0 mm 1 m/s 751 mmHg 89%
    20:00 +24°C° 0 mm 1 m/s 751 mmHg 93%
    21:00 +23°C° 0 mm 1 m/s 752 mmHg 93%
    22:00 +23°C° 0 mm 1 m/s 752 mmHg 93%
    23:00 +21°C° 0 mm 0 m/s 752 mmHg 93%

    Après-demain, 22 Août, Mercredi

    Heure Température Précipitation Vent Pression Humidité
    00:00 +21°C° 0 mm 0 m/s 752 mmHg 93%
    01:00 +20°C° 0 mm 0 m/s 752 mmHg 93%
    02:00 +20°C° 0 mm 0 m/s 752 mmHg 93%
    03:00 +20°C° 0 mm 0 m/s 752 mmHg 93%
    04:00 +20°C° 0 mm 0 m/s 753 mmHg 93%
    05:00 +22°C° 0 mm 1 m/s 753 mmHg 94%
    06:00 +23°C° 0 mm 1 m/s 753 mmHg 89%
    07:00 +25°C° 0 mm 1 m/s 753 mmHg 84%
    08:00 +27°C° 0 mm 1 m/s 753 mmHg 80%
    09:00 +29°C° 0 mm 1 m/s 753 mmHg 73%
    10:00 +31°C° 0 mm 1 m/s 753 mmHg 66%
    11:00 +32°C° 0 mm 1 m/s 753 mmHg 58%
    12:00 +33°C° 0 mm 1 m/s 753 mmHg 57%
    13:00 +33°C° 0 mm 1 m/s 752 mmHg 55%
    14:00 +34°C° 0 mm 1 m/s 751 mmHg 53%
    15:00 +33°C° 0 mm 1 m/s 751 mmHg 59%
    16:00 +32°C° 0 mm 2 m/s 751 mmHg 65%
    17:00 +31°C° 0 mm 2 m/s 750 mmHg 70%
    18:00 +30°C° 0 mm 2 m/s 751 mmHg 75%
    19:00 +28°C° 0 mm 2 m/s 751 mmHg 79%
    20:00 +27°C° 0 mm 2 m/s 751 mmHg 83%
    21:00 +27°C° 0,3 mm 2 m/s 751 mmHg 84%
    22:00 +26°C° 0,3 mm 2 m/s 751 mmHg 85%
    23:00 +26°C° 0,3 mm 2 m/s 751 mmHg 85%

    23 Août, Jeudi

    Heure Température Précipitation Vent Pression Humidité
    00:00 +26°C° 2,1 mm 2 m/s 751 mmHg 88%
    01:00 +25°C° 2,1 mm 2 m/s 751 mmHg 91%
    02:00 +25°C° 2,1 mm 2 m/s 750 mmHg 93%
    03:00 +25°C° 3,3 mm 2 m/s 750 mmHg 94%
    04:00 +25°C° 3,3 mm 2 m/s 750 mmHg 95%
    05:00 +25°C° 3,3 mm 2 m/s 750 mmHg 96%
    06:00 +25°C° 3 mm 2 m/s 750 mmHg 95%
    07:00 +25°C° 3 mm 3 m/s 750 mmHg 95%
    08:00 +26°C° 3 mm 3 m/s 750 mmHg 94%
    09:00 +26°C° 2,2 mm 3 m/s 750 mmHg 93%
    10:00 +27°C° 2,2 mm 3 m/s 749 mmHg 91%
    11:00 +27°C° 2,2 mm 4 m/s 749 mmHg 90%
    12:00 +27°C° 1 mm 4 m/s 749 mmHg 90%
    13:00 +28°C° 1 mm 4 m/s 748 mmHg 89%
    14:00 +28°C° 1 mm 4 m/s 748 mmHg 89%
    15:00 +27°C° 1,3 mm 4 m/s 747 mmHg 90%
    16:00 +27°C° 1,3 mm 4 m/s 747 mmHg 92%
    17:00 +26°C° 1,3 mm 4 m/s 746 mmHg 93%
    18:00 +26°C° 1 mm 5 m/s 746 mmHg 93%
    19:00 +26°C° 1 mm 5 m/s 745 mmHg 93%
    20:00 +25°C° 1 mm 5 m/s 745 mmHg 93%
    21:00 +25°C° 1 mm 5 m/s 743 mmHg 93%
    22:00 +25°C° 1 mm 5 m/s 742 mmHg 93%
    23:00 +25°C° 1 mm 5 m/s 741 mmHg 92%

    24 Août, Vendredi

    Heure Température Précipitation Vent Pression Humidité
    00:00 +24°C° 0,5 mm 6 m/s 740 mmHg 93%
    01:00 +24°C° 0,5 mm 6 m/s 739 mmHg 93%
    02:00 +24°C° 0,5 mm 6 m/s 738 mmHg 93%
    03:00 +23°C° 0,6 mm 6 m/s 738 mmHg 93%
    04:00 +23°C° 0,6 mm 6 m/s 737 mmHg 93%
    05:00 +23°C° 0,6 mm 5 m/s 737 mmHg 93%
    06:00 +23°C° 1,1 mm 5 m/s 738 mmHg 93%
    07:00 +23°C° 1,1 mm 5 m/s 739 mmHg 93%
    08:00 +23°C° 1,1 mm 5 m/s 739 mmHg 93%
    09:00 +23°C° 0,7 mm 4 m/s 740 mmHg 93%
    10:00 +23°C° 0,7 mm 4 m/s 741 mmHg 93%
    11:00 +24°C° 0,7 mm 3 m/s 741 mmHg 94%
    12:00 +25°C° 0,2 mm 4 m/s 742 mmHg 92%
    13:00 +25°C° 0,2 mm 4 m/s 742 mmHg 91%
    14:00 +25°C° 0,2 mm 4 m/s 742 mmHg 89%
    15:00 +25°C° 0 mm 4 m/s 743 mmHg 89%
    16:00 +25°C° 0 mm 4 m/s 743 mmHg 89%
    17:00 +25°C° 0 mm 4 m/s 743 mmHg 88%
    18:00 +23°C° 0 mm 4 m/s 744 mmHg 89%
    19:00 +22°C° 0 mm 4 m/s 744 mmHg 90%
    20:00 +22°C° 0 mm 4 m/s 745 mmHg 91%
    21:00 +22°C° 0 mm 3 m/s 745 mmHg 91%
    22:00 +22°C° 0 mm 3 m/s 745 mmHg 91%
    23:00 +21°C° 0 mm 3 m/s 746 mmHg 91%

    25 Août, Samedi

    Heure Température Précipitation Vent Pression Humidité
    00:00 +21°C° 0,1 mm 4 m/s 746 mmHg 91%
    01:00 +21°C° 0,1 mm 4 m/s 746 mmHg 91%
    02:00 +21°C° 0,1 mm 4 m/s 747 mmHg 91%
    03:00 +21°C° 0,1 mm 4 m/s 747 mmHg 91%
    04:00 +21°C° 0,1 mm 4 m/s 748 mmHg 90%
    05:00 +21°C° 0,1 mm 4 m/s 748 mmHg 89%
    06:00 +21°C° 0,1 mm 4 m/s 748 mmHg 87%
    07:00 +22°C° 0,1 mm 5 m/s 749 mmHg 85%
    08:00 +23°C° 0,1 mm 5 m/s 749 mmHg 83%
    09:00 +23°C° 0,2 mm 6 m/s 749 mmHg 81%
    10:00 +24°C° 0,2 mm 6 m/s 749 mmHg 78%
    11:00 +26°C° 0,2 mm 7 m/s 749 mmHg 75%
    12:00 +26°C° 0,2 mm 7 m/s 749 mmHg 74%
    13:00 +26°C° 0,2 mm 7 m/s 749 mmHg 74%
    14:00 +27°C° 0,2 mm 8 m/s 749 mmHg 73%
    15:00 +26°C° 0,1 mm 7 m/s 750 mmHg 76%
    16:00 +24°C° 0,1 mm 6 m/s 750 mmHg 78%
    17:00 +25°C° 0,1 mm 5 m/s 751 mmHg 81%
    18:00 +23°C° 0 mm 4 m/s 751 mmHg 85%
    19:00 +21°C° 0 mm 3 m/s 752 mmHg 88%
    20:00 +20°C° 0 mm 2 m/s 752 mmHg 92%
    21:00 +21°C° 0 mm 1 m/s 752 mmHg 92%
    22:00 +20°C° 0 mm 1 m/s 752 mmHg 93%
    23:00 +20°C° 0 mm 1 m/s 752 mmHg 93%
    Voir plus